| time (UTC) | temp C | wind direction | speed KPH | gust KPH | rain 1hr cm | rain 24hr cm | rain mn cm | humidity % | barometer mb |
| 20260507072037 | 11 | 0 | 0.0 | 0.0 | 0.00 | 0.08 | 0.00 | 82 | 1018.2 |
| 20260507071034 | 11 | 0 | 0.0 | 0.0 | 0.00 | 0.08 | 0.00 | 82 | 1018.2 |
| 20260507070034 | 11 | 0 | 0.0 | 0.0 | 0.00 | 0.08 | 0.00 | 81 | 1018.2 |
| 20260507065024 | 11 | 0 | 0.0 | 0.0 | 0.00 | 0.08 | 0.00 | 82 | 1018.1 |
| 20260507064022 | 11 | 0 | 0.0 | 0.0 | 0.00 | 0.10 | 0.00 | 84 | 1018.1 |
| 20260507062033 | 10 | 0 | 0.0 | 0.0 | 0.00 | 0.15 | 0.00 | 89 | 1017.9 |
| 20260507061034 | 10 | 0 | 0.0 | 0.0 | 0.00 | 0.15 | 0.00 | 90 | 1017.8 |
| 20260507060040 | 10 | 0 | 0.0 | 0.0 | 0.00 | 0.15 | 0.00 | 93 | 1017.8 |
| 20260507055034 | 9 | 0 | 0.0 | 0.0 | 0.00 | 0.20 | 0.00 | 94 | 1017.7 |
| 20260507054038 | 9 | 0 | 0.0 | 0.0 | 0.00 | 0.20 | 0.00 | 95 | 1017.6 |
| 20260507052039 | 8 | 0 | 0.0 | 0.0 | 0.00 | 0.23 | 0.00 | 94 | 1017.5 |
| 20260507051022 | 8 | 0 | 0.0 | 0.0 | 0.00 | 0.23 | 0.00 | 94 | 1017.4 |
| 20260507050023 | 8 | 0 | 0.0 | 0.0 | 0.00 | 0.23 | 0.00 | 95 | 1017.3 |
| 20260507045039 | 8 | 0 | 0.0 | 0.0 | 0.00 | 0.23 | 0.00 | 95 | 1017.2 |
| 20260507044036 | 8 | 0 | 0.0 | 0.0 | 0.00 | 0.23 | 0.00 | 95 | 1017.0 |
| 20260507043035 | 8 | 0 | 0.0 | 0.0 | 0.00 | 0.23 | 0.00 | 95 | 1017.0 |
| 20260507042039 | 8 | 0 | 0.0 | 0.0 | 0.00 | 0.23 | 0.00 | 96 | 1016.9 |
| 20260507034043 | 8 | 0 | 0.0 | 0.0 | 0.00 | 0.36 | 0.00 | 96 | 1016.6 |
| 20260507024037 | 8 | 0 | 0.0 | 0.0 | 0.00 | 0.36 | 0.00 | 98 | 1016.5 |
| 20260507023040 | 8 | 0 | 0.0 | 0.0 | 0.00 | 0.36 | 0.00 | 98 | 1016.4 |
| 20260507022039 | 8 | 0 | 0.0 | 0.0 | 0.00 | 0.36 | 0.00 | 98 | 1016.3 |
| 20260507012034 | 8 | 0 | 0.0 | 0.0 | 0.00 | 0.43 | 0.00 | 97 | 1016.2 |
| 20260507010039 | 8 | 0 | 0.0 | 0.0 | 0.00 | 0.51 | 0.00 | 97 | 1016.2 |
| 20260507003022 | 8 | 0 | 0.0 | 0.0 | 0.00 | 0.56 | 0.00 | 95 | 1016.1 |
| 20260506234037 | 8 | 0 | 0.0 | 0.0 | 0.00 | 0.71 | 0.00 | 96 | 1015.9 |
| 20260506231038 | 8 | 0 | 0.0 | 0.0 | 0.00 | 0.81 | 0.00 | 97 | 1015.7 |
| 20260506230038 | 8 | 0 | 0.0 | 0.0 | 0.00 | 0.86 | 0.00 | 96 | 1015.6 |
| 20260506225037 | 8 | 0 | 0.0 | 0.0 | 0.00 | 0.89 | 0.00 | 96 | 1015.5 |
| 20260506224039 | 8 | 0 | 0.0 | 0.0 | 0.00 | 0.94 | 0.00 | 96 | 1015.4 |
| 20260506223036 | 8 | 0 | 0.0 | 0.0 | 0.00 | 1.02 | 0.00 | 96 | 1015.4 |
| 20260506222037 | 8 | 0 | 0.0 | 0.0 | 0.00 | 1.04 | 0.00 | 96 | 1015.3 |
| 20260506221037 | 8 | 0 | 0.0 | 0.0 | 0.00 | 1.09 | 0.00 | 96 | 1015.2 |
| 20260506215037 | 8 | 0 | 0.0 | 0.0 | 0.00 | 1.14 | 1.09 | 96 | 1015.1 |
| 20260506212031 | 8 | 0 | 0.0 | 0.0 | 0.00 | 1.17 | 1.09 | 95 | 1015.0 |
| 20260506210032 | 9 | 0 | 0.0 | 0.0 | 0.00 | 1.24 | 1.09 | 94 | 1014.9 |
| 20260506205042 | 9 | 0 | 0.0 | 0.0 | 0.00 | 1.24 | 1.09 | 94 | 1014.8 |
| 20260506203038 | 9 | 0 | 0.0 | 0.0 | 0.00 | 1.30 | 1.09 | 93 | 1014.8 |
| 20260506202050 | 9 | 0 | 0.0 | 0.0 | 0.00 | 1.37 | 1.09 | 93 | 1014.7 |
| 20260506201039 | 9 | 0 | 0.0 | 0.0 | 0.00 | 1.37 | 1.09 | 92 | 1014.7 |
| 20260506200040 | 10 | 0 | 0.0 | 0.0 | 0.00 | 1.45 | 1.09 | 91 | 1014.6 |
| 20260506195033 | 10 | 0 | 0.0 | 0.0 | 0.00 | 1.45 | 1.09 | 91 | 1014.4 |
| 20260506194037 | 10 | 0 | 0.0 | 0.0 | 0.00 | 1.50 | 1.09 | 90 | 1014.3 |
| 20260506190043 | 10 | 0 | 0.0 | 0.0 | 0.00 | 1.65 | 1.09 | 86 | 1013.8 |
| 20260506185038 | 10 | 0 | 0.0 | 0.0 | 0.00 | 1.65 | 1.09 | 86 | 1013.7 |
| 20260506184036 | 11 | 0 | 0.0 | 0.0 | 0.00 | 1.68 | 1.09 | 86 | 1013.6 |
| 20260506183042 | 11 | 0 | 0.0 | 0.0 | 0.00 | 1.68 | 1.09 | 83 | 1013.5 |
| 20260506182040 | 11 | 0 | 0.0 | 0.0 | 0.00 | 1.70 | 1.09 | 83 | 1013.3 |
| 20260506180039 | 12 | 0 | 0.0 | 0.0 | 0.00 | 1.75 | 1.09 | 83 | 1013.0 |
| 20260506175039 | 11 | 0 | 0.0 | 0.0 | 0.00 | 1.75 | 1.09 | 83 | 1012.8 |
| 20260506174042 | 12 | 0 | 0.0 | 0.0 | 0.00 | 1.75 | 1.09 | 84 | 1012.7 |
| 20260506173038 | 11 | 0 | 0.0 | 0.0 | 0.00 | 1.75 | 1.09 | 86 | 1012.6 |
| 20260506171041 | 11 | 0 | 0.0 | 0.0 | 0.00 | 1.75 | 1.09 | 85 | 1012.5 |
| 20260506165031 | 12 | 0 | 0.0 | 0.0 | 0.00 | 1.75 | 1.09 | 83 | 1012.3 |
| 20260506164038 | 12 | 0 | 0.0 | 0.0 | 0.00 | 1.75 | 1.09 | 82 | 1012.2 |
| 20260506163041 | 12 | 0 | 0.0 | 0.0 | 0.00 | 1.75 | 1.09 | 83 | 1012.1 |
| 20260506162035 | 12 | 0 | 0.0 | 0.0 | 0.00 | 1.75 | 1.09 | 83 | 1012.1 |
| 20260506160036 | 12 | 0 | 0.0 | 0.0 | 0.00 | 1.75 | 1.09 | 83 | 1012.1 |
| 20260506155039 | 12 | 0 | 0.0 | 0.0 | 0.00 | 1.75 | 1.09 | 80 | 1012.0 |
| 20260506154034 | 13 | 0 | 0.0 | 0.0 | 0.00 | 1.75 | 1.09 | 77 | 1012.0 |
| 20260506153039 | 13 | 0 | 0.0 | 0.0 | 0.00 | 1.75 | 1.09 | 80 | 1012.0 |
| 20260506152036 | 13 | 0 | 0.0 | 0.0 | 0.00 | 1.75 | 1.09 | 82 | 1011.9 |
| 20260506151042 | 13 | 0 | 0.0 | 0.0 | 0.00 | 1.75 | 1.09 | 78 | 1011.8 |
| 20260506150036 | 13 | 0 | 0.0 | 0.0 | 0.00 | 1.75 | 1.09 | 81 | 1011.8 |
| 20260506144037 | 13 | 0 | 0.0 | 0.0 | 0.00 | 1.75 | 1.09 | 83 | 1011.8 |
| 20260506143037 | 13 | 0 | 0.0 | 0.0 | 0.00 | 1.75 | 1.09 | 84 | 1011.8 |
| 20260506141034 | 13 | 0 | 0.0 | 0.0 | 0.00 | 1.75 | 1.09 | 86 | 1011.8 |
| 20260506140040 | 12 | 0 | 0.0 | 0.0 | 0.00 | 1.75 | 1.09 | 83 | 1011.8 |
| 20260506134037 | 12 | 0 | 0.0 | 0.0 | 0.00 | 1.75 | 1.09 | 88 | 1011.8 |
| 20260506133041 | 12 | 0 | 0.0 | 0.0 | 0.00 | 1.75 | 1.09 | 91 | 1011.8 |
| 20260506132038 | 12 | 0 | 0.0 | 0.0 | 0.00 | 1.75 | 1.09 | 93 | 1011.8 |
| 20260506131036 | 12 | 0 | 0.0 | 0.0 | 0.00 | 1.75 | 1.09 | 90 | 1011.8 |
| 20260506125037 | 12 | 0 | 0.0 | 0.0 | 0.00 | 1.75 | 1.09 | 90 | 1011.6 |
| 20260506124038 | 12 | 0 | 0.0 | 0.0 | 0.00 | 1.75 | 1.09 | 92 | 1011.6 |
| 20260506120038 | 11 | 0 | 0.0 | 0.0 | 0.00 | 1.75 | 1.09 | 96 | 1011.6 |
| 20260506114039 | 11 | 0 | 0.0 | 0.0 | 0.00 | 1.75 | 1.09 | 90 | 1011.5 |
| 20260506113036 | 12 | 0 | 0.0 | 0.0 | 0.00 | 1.75 | 1.09 | 91 | 1011.5 |
| 20260506112035 | 11 | 0 | 0.0 | 0.0 | 0.00 | 1.75 | 1.09 | 95 | 1011.6 |
| 20260506111037 | 11 | 0 | 0.0 | 0.0 | 0.00 | 1.75 | 1.09 | 96 | 1011.7 |
| 20260506105039 | 10 | 0 | 0.0 | 0.0 | 0.00 | 1.75 | 1.09 | 10 | 1011.7 |
| 20260506104037 | 10 | 0 | 0.0 | 0.0 | 0.00 | 1.75 | 1.09 | 99 | 1011.8 |
| 20260506101037 | 10 | 0 | 0.0 | 0.0 | 0.00 | 1.75 | 1.09 | 10 | 1011.5 |
| 20260506095040 | 10 | 0 | 0.0 | 0.0 | 0.00 | 1.75 | 1.09 | 10 | 1011.5 |
| 20260506094034 | 10 | 0 | 0.0 | 0.0 | 0.00 | 1.75 | 1.09 | 10 | 1011.4 |
| 20260506093038 | 10 | 0 | 0.0 | 0.0 | 0.00 | 1.75 | 1.09 | 10 | 1011.2 |
| 20260506091040 | 10 | 0 | 0.0 | 0.0 | 0.00 | 1.75 | 1.09 | 10 | 1011.2 |
| 20260506085036 | 9 | 0 | 0.0 | 0.0 | 0.03 | 1.75 | 1.09 | 10 | 1011.2 |
| 20260506084035 | 9 | 0 | 0.0 | 0.0 | 0.03 | 1.75 | 1.09 | 10 | 1011.1 |
| 20260506083035 | 8 | 0 | 0.0 | 0.0 | 0.03 | 1.78 | 1.09 | 10 | 1011.0 |
| 20260506082038 | 8 | 0 | 0.0 | 0.0 | 0.08 | 1.78 | 1.09 | 10 | 1011.0 |
| 20260506081038 | 8 | 0 | 0.0 | 0.0 | 0.08 | 1.78 | 1.09 | 10 | 1010.9 |